Regional Weather Roundup
Issued by NWS

Home | Current Version | Previous Version | Graphics & Text | Print | Product List | Glossary On
Versions: 1 2 3 4 5 6 7 8 9 10 11 12 13 14 15 16 17 18 19 20 21 22 23 24 25 26 27 28 29 30 31 32 33 34 35 36 37 38 39 40 41 42 43 44 45 46 47 48 49 50
000
ASUS45 KBOI 191410
RWRID
WEATHER ROUNDUP FOR IDAHO
NATIONAL WEATHER SERVICE BOISE ID
700 AM MST FRI DEC 19 2014

NOTE: "FAIR" INDICATES FEW OR NO CLOUDS BELOW 12000 FEET
WITH NO SIGNIFICANT WEATHER AND/OR OBSTRUCTIONS TO VISIBILITY

IDZ012-014-191500-
SOUTHWEST IDAHO


CITY           SKY/WX    TMP DP  RH WIND       PRES   REMARKS
BOISE          CLOUDY    44  34  67 SE10      30.03F
CALDWELL       CLOUDY    39  28  65 E9        30.05S WCI  33
MOUNTAIN HOME  CLOUDY    39  31  73 E18       30.05S WCI  29
$$

IDZ016-017-191500-
SOUTHCENTRAL IDAHO


CITY           SKY/WX    TMP DP  RH WIND       PRES   REMARKS
BURLEY         CLOUDY    40  25  55 S15       30.09S WCI  32
JEROME         CLOUDY    35  27  72 NE12      30.08F WCI  27
TWIN FALLS     CLOUDY    43  25  49 S15       30.06F
$$

IDZ019>023-191500-
SOUTHEAST IDAHO


CITY           SKY/WX    TMP DP  RH WIND       PRES   REMARKS
IDAHO FALLS    CLOUDY    31  28  89 SW5       30.12S WCI  26
POCATELLO      MOCLDY    37  29  72 S15       30.12R WCI  28
REXBURG        FLURRIES  32  29  88 CALM      30.12S
$$

IDZ006-010-011-018-031-032-191500-
CENTRAL IDAHO MOUNTAINS


CITY           SKY/WX    TMP DP  RH WIND       PRES   REMARKS
MCCALL         CLOUDY    33  30  88 SE8       29.98F WCI  26
HAILEY         LGT SNOW  30  30 100 CALM      30.12R
STANLEY          N/A     31  25  78 E9        30.02F WCI  23
SALMON         CLOUDY    27  23  86 CALM      30.06S
CHALLIS        CLOUDY    26  24  92 CALM      30.06F
$$

IDZ002-004-006-007-026-191500-
NORTHERN IDAHO


CITY           SKY/WX    TMP DP  RH WIND       PRES   REMARKS
LEWISTON       LGT RAIN  42  38  85 E9        29.92R
LOWELL           N/A     37  35  92 N5        30.00F WCI  33
COEUR D`ALENE  CLOUDY    37  36  93 E6        29.88F WCI  33
MULLAN PASS    SNOW      32  28  85 VRB5      29.84S VSB 1/4 WCI  27
$$


USA.gov is the U.S. government's official web portal to all federal, state and local government web resources and services.